STARLINK-32750 (62572 NORAD) Tracking and Keplerian Element Data

This shows tracking and keplerian element data for the satellite.

Feedback or suggestion? Click here.




ElementValue
Catalog62572
NameSTARLINK-32750
Epoch Orbit493
Epoch Day35.16668981
Epoch Year2025
RAAN27.5831
Inclination43.0005
Eccentricity0.0001438
Argument of Perigee259.3081
Mean Anonmoly94.1435
Mean Motion15.5059648
Decay Rate-0.00052831
L11 62572U 25006U 25035.16668981 -.00052831 00000+0 -90022-3 0 9991
L22 62572 43.0005 27.5831 0001438 259.3081 94.1435 15.50596480 4931



Live tracking and technical data element details for STARLINK-32750 (NORAD 62572). STARLINK-32750 can be tracked NOW for your location showing map with azimuth and elevation plus other details from your city location.







IsCatalogInMostPopularTable: catalog: 62572, numindb: 11
Update: records affected: 1



GetName: 62572 STARLINK-32750

Hit Count: updated at: Mon, 19 May 2025 02:07:10 GMT